Weather History for Alexandria, Egypt

Change the Weather History Date:

Wednesday, December 11, 2013

  Actual Average Record
Temperature  
Mean Temperature 56 °F -  
Max Temperature 61 °F 64 °F 71 °F (1999)
Min Temperature 50 °F 48 °F 46 °F (2011)
Degree Days  
Heating Degree Days 10    
Growing Degree Days 6 (Base 50)    
Moisture  
Dew Point 44 °F    
Average Humidity 60    
Maximum Humidity 94    
Minimum Humidity 32    
Precipitation  
Precipitation 0.12 in 0.07 in - ()
Sea Level Pressure  
Sea Level Pressure 29.93 in    
Wind  
Wind Speed 16 mph ()    
Max Wind Speed 28 mph    
Max Gust Speed -    
Visibility 6.2 miles    
Events Rain    
Averages and records for this station are not official NWS values.
T = Trace of Precipitation, MM = Missing Value Source: Averaged Metar Reports

Daily Weather History Graph

Daily Weather History Graph

Search for Another Location

Airport:

Trip Planner

Search our weather history database for the weather conditions in past years. The results will help you decide how hot, cold, wet, or windy it might be!

Date:

Astronomy

Dec. 11, 2013 Rise Set
Actual Time 6:48 AM EET 4:58 PM EET
Civil Twilight 6:21 AM EET 5:24 PM EET
Nautical Twilight 5:51 AM EET 5:55 PM EET
Astronomical Twilight 5:22 AM EET 6:24 PM EET
Moon 1:04 PM EET (12/11) 1:07 AM EET (12/11)
Length of Visible Light 11h 03m
Length of Day
10h 09m
Waxing Gibbous, 69% of the Moon is Illuminated
Dec 11
Waxing Gibbous
Dec 17
Full
Dec 25
Last Quarter
Jan 1
New
Jan 8
First Quarter

Hourly Weather History & Observations

Time (EET) Temp. Dew Point Humidity Pressure Visibility Wind Dir Wind Speed Gust Speed Precip Events Conditions
12:00 AM 59.0 °F 57.2 °F 94% 29.95 in 6.2 mi WNW 11.5 mph - N/A   Scattered Clouds
1:00 AM 60.8 °F 57.2 °F 88% 29.92 in 6.2 mi West 9.2 mph - N/A   Scattered Clouds
2:00 AM 63 °F 55 °F 67% 29.92 in 6 mi WNW 11.5 mph - -   Partly Cloudy
2:00 AM 62.6 °F 55.4 °F 77% 29.92 in 6.2 mi WNW 11.5 mph - N/A   Scattered Clouds
3:00 AM 62.6 °F 55.4 °F 77% 29.92 in 6.2 mi West 10.4 mph - N/A   Scattered Clouds
4:00 AM 62.6 °F 53.6 °F 72% 29.89 in 6.2 mi WNW 13.8 mph - N/A   Scattered Clouds
5:00 AM 61 °F 54 °F 70% 29.90 in 6 mi NW 18.4 mph - -   Partly Cloudy
5:00 AM 60.8 °F 53.6 °F 77% 29.89 in 6.2 mi NW 11.5 mph - N/A   Scattered Clouds
6:00 AM 60.8 °F 50.0 °F 68% 29.89 in 6.2 mi NW 20.7 mph - N/A   Scattered Clouds
7:00 AM 60.8 °F 48.2 °F 63% 29.89 in 6.2 mi NW 18.4 mph - N/A   Scattered Clouds
8:00 AM 60 °F 47 °F 51% 29.93 in 6 mi NW 20.7 mph - - Rain Light Rain Showers
8:00 AM 59.0 °F 46.4 °F 63% 29.92 in 6.2 mi NW 20.7 mph - N/A   Scattered Clouds
9:00 AM 60.8 °F 44.6 °F 55% 29.95 in 6.2 mi NW 20.7 mph - N/A   Scattered Clouds
10:00 AM 60.8 °F 46.4 °F 59% 29.95 in 6.2 mi NW 27.6 mph - N/A   Scattered Clouds
11:00 AM 60 °F 39 °F 35% 29.96 in 6 mi NW 24.2 mph - -   Mostly Cloudy
11:00 AM 60.8 °F 39.2 °F 45% 29.95 in 6.2 mi NW 24.2 mph - N/A   Scattered Clouds
12:00 PM 57.2 °F 50.0 °F 77% 29.95 in 6.2 mi WNW 18.4 mph - N/A   Scattered Clouds
1:00 PM 55.4 °F 41.0 °F 58% 29.92 in 6.2 mi NW 25.3 mph - N/A   Scattered Clouds
2:00 PM 56 °F 41 °F 46% 29.93 in 6 mi NW 23.0 mph - -  
2:00 PM 57.2 °F 41.0 °F 55% 29.92 in 6.2 mi NW 25.3 mph - N/A   Scattered Clouds
3:00 PM 51.8 °F 42.8 °F 71% 29.92 in 6.2 mi NNW 26.5 mph - N/A   Scattered Clouds
4:00 PM 53.6 °F 35.6 °F 51% 29.92 in 6.2 mi NW 26.5 mph - N/A   Scattered Clouds
5:00 PM 53 °F 33 °F 34% 29.94 in 6 mi NW 24.2 mph - -   Partly Cloudy
5:00 PM 53.6 °F 33.8 °F 47% 29.92 in 6.2 mi NW 24.2 mph - N/A   Scattered Clouds
6:00 PM 51.8 °F 39.2 °F 62% 29.95 in 6.2 mi NW 26.5 mph - N/A   Scattered Clouds
7:00 PM 53.6 °F 37.4 °F 54% 29.95 in 6.2 mi NNW 24.2 mph - N/A   Scattered Clouds
8:00 PM 53 °F 32 °F 33% 29.96 in 6 mi NW 24.2 mph - -   Partly Cloudy
8:00 PM 53.6 °F 32.0 °F 44% 29.95 in 6.2 mi NW 24.2 mph - N/A   Scattered Clouds
9:00 PM 50.0 °F 41.0 °F 71% 29.95 in 6.2 mi North 24.2 mph - N/A   Scattered Clouds
10:00 PM 51.8 °F 41.0 °F 67% 29.95 in 6.2 mi North 20.7 mph - N/A   Scattered Clouds
11:00 PM 53 °F 32 °F 32% 29.99 in 6 mi NW 20.7 mph - -   Mostly Cloudy
11:00 PM 53.6 °F 32.0 °F 44% 29.98 in 6.2 mi NW 13.8 mph - N/A   Scattered Clouds